CAPE
nan nan nan nan nan nan nan 0 nan nan nan 1 2 2 1 3 nan nan nan nan nan nan nan nan nan nan nan 14 26 26 27 28 33 33 41 48 55 55 59 61 61 63 64 68 68 69 73 67 67 68 67 69 73 73 83 99 99 122 140 149 149 145 136 128 128 132 153 178 204 204 218 228 239 239 246 239 244 244 243 244 244 227 196 181 181 165
nan nan nan nan nan nan nan 0 0 0 nan 1 2 2 1 nan nan nan nan nan nan nan nan nan nan nan nan nan 25 25 25 29 35 35 44 51 59 59 62 65 65 65 71 73 73 76 79 74 74 72 72 72 73 73 78 92 92 108 127 134 134 138 130 123 123 129 138 157 174 174 191 206 225 225 236 245 256 256 236 221 221 226 221 203 203 184
nan nan nan nan nan nan nan nan nan nan nan 0 5 5 2 nan nan nan nan nan nan nan nan nan nan nan nan nan 28 28 27 31 38 38 45 55 62 62 68 69 69 69 73 74 74 80 83 83 83 79 75 76 77 77 82 87 87 97 115 126 126 128 126 120 120 116 124 135 148 148 163 175 190 190 201 226 235 235 228 207 207 197 197 189 189 188
nan nan nan nan nan nan nan nan nan nan 1 1 5 5 2 0 nan nan nan nan nan nan nan nan nan nan nan nan 18 18 32 37 43 43 48 58 66 66 71 73 73 75 77 79 79 82 89 89 89 85 81 79 82 82 88 93 93 99 106 111 111 119 119 115 115 113 113 122 128 128 135 145 145 145 160 160 180 180 194 199 199 204 190 176 176 175
0 nan nan nan nan nan nan 0 nan nan 1 1 1 1 1 0 nan nan nan nan nan nan nan nan nan nan nan nan 6 6 37 46 50 50 54 60 69 69 75 79 79 78 81 83 83 89 91 94 94 95 91 85 86 86 90 98 98 109 108 110 110 113 119 127 127 126 119 122 123 123 123 126 126 126 126 122 147 147 171 186 186 189 189 174 174 171
nan 0 nan nan nan nan 0 0 1 1 0 nan nan nan nan nan nan nan nan nan nan nan nan nan nan nan nan nan 6 6 33 47 52 52 56 62 66 66 72 79 79 77 82 84 84 88 91 97 97 101 99 96 97 97 95 105 105 116 120 122 122 120 116 130 130 134 133 133 134 134 136 132 136 136 131 131 132 132 149 167 167 190 194 186 186 179
1 0 0 nan nan nan 0 0 1 1 nan nan nan nan nan nan nan nan nan nan nan nan nan nan nan nan nan nan 8 8 26 34 46 46 45 50 54 54 65 71 71 77 82 83 83 84 94 97 97 102 103 100 101 101 101 103 103 112 128 135 135 131 127 132 132 137 142 147 155 155 152 153 151 151 157 152 140 140 140 160 160 187 199 196 196 205
1 0 1 nan nan 0 0 0 nan nan nan nan nan nan nan nan nan nan nan nan nan nan nan nan nan nan nan nan nan nan nan nan nan nan nan 0 9 9 17 31 31 41 55 66 66 74 81 90 90 94 103 106 115 115 116 112 112 107 116 131 131 149 149 147 147 143 147 153 154 154 162 165 164 164 172 179 187 187 194 194 194 194 211 222 222 244
nan nan 0 nan nan nan nan nan nan nan nan nan nan nan nan nan nan nan nan nan nan nan nan nan nan nan nan nan nan nan nan nan nan nan nan nan nan nan 1 10 10 23 36 47 47 60 69 78 78 85 92 107 118 118 119 115 115 110 110 119 119 138 157 160 160 155 154 155 153 153 143 138 136 136 141 162 177 177 188 191 191 188 200 204 204 228
0 0 0 0 0 0 nan nan nan nan nan nan nan nan nan nan nan nan nan nan nan nan nan nan nan nan nan nan nan nan nan nan 4 4 8 1 8 8 3 4 4 5 26 36 36 47 57 65 65 71 80 96 112 112 120 117 117 108 104 107 107 120 144 165 165 172 172 161 149 149 144 133 126 126 126 135 154 154 161 157 157 164 168 177 177 208
0 0 0 nan nan 0 nan nan nan nan nan nan nan nan nan nan nan nan nan nan nan nan nan nan nan nan nan nan nan nan nan nan nan nan nan nan 4 4 8 9 9 15 25 33 33 41 47 56 56 61 69 77 87 87 100 105 105 101 98 100 100 108 129 155 155 175 187 177 161 161 147 136 130 130 120 130 139 139 141 146 146 143 146 154 154 187
0 0 0 0 0 0 nan nan nan nan nan nan nan nan nan nan nan nan nan nan nan nan nan nan nan nan nan nan nan nan nan nan nan nan nan nan nan nan nan nan nan 3 9 18 18 29 41 47 47 53 52 56 73 73 78 80 80 94 93 94 94 101 116 143 143 173 187 190 177 177 164 144 133 133 122 128 138 138 138 143 143 140 145 156 156 179
nan nan nan 0 0 0 nan nan nan nan nan nan nan nan nan nan nan nan nan nan nan nan nan nan nan nan nan nan nan nan nan nan nan nan nan nan nan nan nan nan nan nan nan nan nan nan 17 35 35 40 43 45 58 58 66 70 70 84 90 95 95 98 108 128 128 152 177 185 182 182 169 157 145 145 145 140 146 146 148 143 143 145 144 154 154 183
nan nan nan nan nan nan nan nan nan nan nan nan nan nan nan nan nan nan nan nan nan nan nan nan nan nan nan nan nan nan nan nan nan nan nan nan nan nan nan nan nan nan nan nan nan nan 3 8 8 9 29 32 40 40 42 61 61 79 83 91 91 99 105 120 120 146 159 171 171 171 172 170 162 162 157 153 158 158 155 147 147 150 153 157 157 186
0 0 nan nan nan nan nan nan nan nan nan nan nan nan nan nan nan nan nan nan nan nan nan nan nan nan nan nan nan nan nan nan nan nan nan nan nan nan nan nan nan nan nan nan nan nan 0 1 1 nan 3 9 13 13 22 38 38 70 78 90 90 102 109 115 115 134 154 158 164 164 169 166 168 168 172 168 168 168 160 153 153 152 150 159 159 182
0 0 nan 0 0 nan nan nan nan nan nan nan nan nan nan nan nan nan nan nan nan nan nan nan nan nan nan nan nan nan nan nan nan nan nan nan nan nan nan nan nan nan nan nan nan nan nan nan nan nan nan 10 26 26 26 35 35 59 72 87 87 102 107 118 118 130 152 161 166 166 159 166 170 170 176 179 171 171 163 157 157 149 149 156 156 173
0 nan 0 1 1 nan nan nan nan nan nan nan nan nan nan nan nan nan nan nan nan nan nan nan nan nan nan nan nan nan nan nan nan nan nan nan nan nan nan nan nan nan nan nan nan nan nan nan nan nan nan 8 22 22 29 39 39 55 68 82 82 96 107 114 114 128 139 151 167 167 165 164 167 167 180 178 170 170 164 158 158 151 149 157 157 174
0 1 1 1 1 nan nan nan nan nan nan nan nan nan nan nan nan nan nan nan nan nan nan nan nan nan nan nan nan nan nan nan nan nan nan nan nan nan nan nan nan nan nan nan nan nan nan nan nan nan nan 10 17 17 26 37 37 52 65 79 79 91 105 109 109 113 117 139 153 153 165 171 174 174 175 175 167 167 160 148 148 142 148 159 159 169
0 1 1 0 0 nan nan nan nan nan nan nan nan nan nan nan nan nan nan nan nan nan nan nan nan nan nan nan nan nan nan nan nan nan nan nan nan nan nan nan nan nan nan nan nan nan nan nan nan nan 4 10 15 15 23 34 34 45 60 72 72 88 97 103 103 95 96 109 138 138 158 167 174 174 175 171 161 161 154 142 142 141 145 162 162 174
nan nan nan nan nan nan nan nan nan nan nan nan nan nan nan nan nan nan nan nan nan nan nan nan nan nan nan nan nan nan nan nan nan nan nan nan nan nan nan nan nan nan nan nan nan nan nan nan nan nan 4 8 13 13 18 26 26 39 52 66 66 74 82 91 91 87 83 80 103 103 132 142 142 142 148 156 159 159 142 147 147 145 147 169 169 179
nan nan nan nan nan nan nan nan nan nan nan nan nan nan nan nan nan nan nan nan nan nan nan nan nan nan nan nan nan nan nan nan nan nan nan nan nan nan nan nan nan nan nan nan nan nan nan nan nan nan 0 8 12 12 16 23 23 33 46 57 57 65 77 81 81 82 72 58 63 63 86 107 117 117 119 131 144 144 144 145 145 147 159 174 174 183
16 1 nan 0 0 0 0 nan nan nan nan nan nan nan nan nan nan nan nan nan nan nan nan nan nan nan nan nan nan nan nan nan nan nan nan nan nan nan nan nan nan nan nan nan nan nan nan nan nan nan 0 9 15 15 18 24 24 29 40 51 51 60 71 77 77 80 71 57 44 44 47 71 85 85 98 118 127 127 135 150 150 157 159 178 178 185
13 3 3 0 0 nan nan nan nan nan nan nan 0 0 nan nan nan nan nan nan nan nan nan nan nan nan nan nan nan nan nan nan nan nan nan nan nan nan nan nan nan nan nan nan nan nan nan nan nan nan 1 15 16 16 21 26 26 31 39 48 48 57 66 76 76 80 76 60 43 43 47 57 73 73 93 116 127 127 138 158 158 167 176 183 183 189
1 0 0 0 0 nan nan nan nan nan nan nan nan nan nan nan nan nan nan nan nan 0 0 nan nan nan nan nan nan nan nan nan nan nan nan nan nan nan nan nan nan nan nan nan nan nan nan nan nan nan nan 10 16 16 21 27 27 36 43 50 50 57 64 72 72 79 74 62 52 52 49 56 62 62 82 105 127 127 153 165 165 182 180 187 187 194
nan nan 0 0 0 nan nan nan nan nan nan nan nan nan nan nan nan nan nan nan nan nan 0 nan nan nan nan 0 nan nan nan nan nan nan nan nan nan nan nan nan nan nan nan nan nan nan nan nan nan nan nan 0 12 12 18 26 26 35 45 51 51 58 61 72 72 80 78 67 59 59 57 56 62 62 70 95 120 120 144 171 171 187 194 198 198 199
3 2 1 3 3 13 22 26 19 19 3 nan nan nan nan 0 nan nan nan nan nan nan nan nan nan nan nan nan nan nan nan nan nan nan nan nan nan nan nan nan nan nan nan nan nan nan nan nan nan nan nan nan 9 9 16 25 25 31 40 52 52 59 65 71 71 79 79 71 67 67 64 61 63 63 69 86 104 104 132 153 153 171 181 190 190 196
51 46 44 52 52 58 71 80 84 84 74 18 0 0 nan nan nan nan nan nan nan nan nan nan nan nan nan nan nan nan nan nan nan nan nan nan nan nan nan nan nan nan nan nan nan nan nan nan nan nan nan nan 0 0 15 22 22 30 40 48 48 57 66 74 74 80 82 79 74 74 70 67 68 68 72 81 97 97 123 133 133 152 163 163 163 187
82 80 74 81 81 78 87 102 117 117 125 98 39 39 7 nan nan nan nan nan nan nan nan nan nan nan nan nan nan nan nan nan nan nan nan nan nan nan nan nan nan nan nan nan nan nan 4 nan nan nan nan nan nan nan 6 19 19 27 36 48 48 57 67 76 76 84 87 88 81 81 78 77 75 75 80 86 98 98 111 121 121 132 141 123 123 104
70 65 73 84 84 87 98 115 137 137 156 151 118 118 16 nan nan nan nan nan nan nan nan nan nan nan nan nan nan nan nan nan nan nan nan nan nan nan nan nan nan nan nan nan nan nan nan nan nan nan nan nan nan nan 0 14 14 22 33 41 41 52 62 75 75 87 91 93 94 94 89 83 86 86 87 92 100 100 113 123 123 125 113 102 102 85
27 34 42 49 49 62 70 61 99 99 145 160 155 155 38 nan nan nan nan nan nan nan nan nan nan nan nan nan nan nan nan nan nan nan nan nan nan nan nan nan nan nan nan nan nan nan nan nan nan nan nan nan nan nan nan 1 1 5 16 36 36 43 55 69 69 80 91 102 104 104 103 104 101 101 101 104 108 108 115 125 125 105 75 69 69 68
4 3 2 5 5 7 7 4 18 18 84 127 145 145 86 nan nan nan nan nan nan nan nan nan nan nan nan nan nan nan nan nan nan nan nan nan nan nan nan nan nan nan nan nan nan nan nan nan nan nan nan nan nan nan nan nan nan nan nan 5 5 20 44 56 56 70 83 96 105 105 112 116 116 116 112 113 117 117 120 123 123 105 63 63 63 45
4 1 nan nan nan nan nan nan nan nan 0 2 5 5 16 17 nan nan nan nan nan nan nan nan nan nan nan nan nan nan nan nan nan nan nan nan nan nan nan nan nan nan nan nan nan nan nan nan nan nan nan nan nan nan nan nan nan nan nan nan nan nan 12 25 25 39 46 69 87 87 104 115 131 131 140 150 149 149 143 147 147 140 58 nan nan 1
7 4 1 0 0 nan nan nan nan nan nan 0 1 1 2 5 9 9 nan nan nan nan nan nan nan nan nan nan nan nan nan nan nan nan nan nan nan nan nan nan nan nan nan nan nan nan nan nan nan nan nan nan nan nan nan 0 0 nan nan nan nan nan 1 12 12 20 34 44 58 58 87 105 126 126 137 146 147 147 153 153 153 144 56 3 3 3
3 8 7 2 2 nan nan nan nan nan nan nan 1 1 0 0 4 4 1 nan nan nan nan nan nan nan nan nan nan nan nan nan nan nan 1 nan nan nan nan nan nan nan nan nan nan nan nan nan nan nan nan nan nan nan nan nan nan 0 nan nan nan nan nan 3 3 15 23 30 28 28 40 53 101 101 108 107 116 116 123 125 125 109 60 10 10 2
7 10 12 11 11 3 nan nan nan nan nan nan nan nan 0 0 1 1 3 nan nan nan nan nan nan nan nan nan nan nan nan nan nan nan 1 nan nan nan nan nan nan nan nan nan nan nan nan nan nan 0 nan nan nan nan nan nan nan nan nan nan nan nan nan nan nan 4 14 19 20 20 16 12 27 27 47 62 67 67 79 87 87 73 50 32 32 13
9 9 10 11 11 6 0 nan nan nan nan nan nan nan nan nan 0 0 1 nan nan nan nan nan nan nan nan nan nan nan nan nan nan nan 0 nan nan nan nan nan nan nan nan nan nan nan nan nan nan 0 2 nan nan nan nan nan nan nan nan nan nan nan nan nan nan 0 4 11 15 15 9 5 8 8 6 44 44 44 58 64 64 62 59 54 54 41
19 15 6 4 4 1 1 nan nan nan nan nan nan nan nan nan nan nan 0 0 0 nan nan nan nan nan nan nan nan nan nan nan nan nan nan nan nan nan nan nan nan nan nan nan nan nan nan nan nan nan nan nan nan nan nan nan nan nan nan nan nan nan nan nan nan nan nan 4 7 7 6 3 5 5 6 37 36 36 55 65 65 67 72 72 72 70
17 13 9 3 3 0 nan 0 nan nan nan nan nan nan nan nan nan nan nan nan nan nan nan nan nan nan nan nan nan nan nan nan nan nan nan nan nan nan nan nan nan nan nan nan nan nan nan nan nan nan nan nan 0 0 0 nan nan nan nan nan nan nan nan nan nan nan nan 0 4 4 9 4 0 0 1 6 7 7 11 17 17 53 82 82 82 99
19 13 6 6 6 3 1 0 nan nan nan nan nan nan nan nan nan nan nan nan nan nan nan nan nan nan nan nan nan nan nan nan nan nan nan nan nan nan nan nan nan nan nan nan nan nan nan nan nan nan nan nan nan nan nan nan nan nan nan nan nan nan nan nan nan nan nan nan 0 0 1 nan nan nan nan nan nan nan 1 4 4 26 32 37 37 86
26 16 16 16 16 5 4 1 nan nan nan nan nan nan nan nan nan nan nan nan nan 0 1 0 0 0 nan nan 0 0 nan nan nan nan nan nan nan nan nan nan nan nan nan nan nan nan nan nan nan nan nan nan nan nan nan nan nan nan 0 nan nan nan 0 nan nan nan nan nan nan nan nan nan nan nan nan nan nan nan nan nan nan 0 14 12 12 13
30 26 26 26 26 23 15 5 1 1 0 nan nan nan nan nan nan nan nan nan nan 1 0 1 1 0 nan nan nan nan 0 nan nan nan nan nan nan nan nan nan nan nan nan nan nan nan nan nan nan nan nan nan nan nan nan nan nan 7 9 nan nan nan nan nan nan nan nan nan nan nan nan nan nan nan nan nan nan nan nan nan nan nan nan nan nan nan
40 34 26 24 24 19 19 8 5 5 1 nan nan nan nan nan nan nan nan nan nan nan nan nan nan nan nan nan nan nan nan nan nan nan nan nan nan nan nan nan nan nan nan nan nan nan nan nan nan nan nan nan nan nan nan 0 0 7 12 nan nan nan nan 0 0 nan nan nan nan nan nan nan nan nan nan nan nan nan nan nan nan nan nan nan nan nan
30 28 23 16 16 16 14 18 19 19 16 2 nan nan nan nan nan nan nan nan nan nan nan nan nan nan nan nan nan nan nan nan nan nan nan nan nan nan nan nan nan nan nan nan nan nan nan nan nan nan nan nan nan nan nan 1 1 2 8 5 5 nan nan nan nan nan nan nan nan nan nan nan nan nan nan nan nan nan nan nan nan nan nan nan nan nan
29 24 17 15 15 17 23 23 19 19 16 5 0 0 nan nan nan nan nan nan nan nan nan nan nan nan nan nan nan nan nan nan nan nan nan nan nan nan nan nan nan nan nan nan nan nan nan nan nan nan nan nan nan nan nan nan nan 0 2 10 10 2 nan nan nan nan nan nan nan nan nan nan nan nan nan nan nan nan nan nan nan nan nan nan nan nan
21 18 18 16 16 22 22 26 22 22 16 6 5 5 nan nan nan nan nan nan nan nan nan nan nan nan nan nan nan nan nan nan nan nan nan 10 13 13 nan nan nan nan nan nan nan nan nan nan nan nan nan nan nan nan nan nan nan 0 6 14 14 9 0 nan nan nan nan nan nan nan nan nan nan nan nan nan nan nan nan nan nan nan nan nan nan nan
15 13 16 15 15 16 25 28 27 27 24 24 22 22 9 nan nan nan nan nan nan nan nan nan nan nan nan nan nan nan nan nan nan nan nan 0 4 4 4 nan nan nan nan nan nan nan nan nan nan nan nan nan nan nan 0 nan nan nan 1 14 14 13 7 4 4 nan nan nan nan nan nan nan nan nan nan nan nan nan nan nan nan nan nan nan nan nan
7 8 7 9 9 14 18 25 31 31 33 33 29 29 17 nan nan nan nan nan nan nan nan nan nan nan nan nan nan nan nan nan nan nan nan nan nan nan 1 2 2 4 nan nan nan nan nan nan nan nan nan nan nan nan nan nan nan nan nan 3 3 9 10 6 6 1 nan nan nan nan nan nan nan nan nan nan nan nan nan nan nan nan nan nan nan nan
17 17 8 6 6 7 18 29 41 41 43 40 39 39 25 nan nan nan nan nan nan nan nan nan nan nan nan nan nan nan nan nan nan nan nan nan nan nan nan 0 0 2 5 5 5 5 1 0 0 nan nan nan nan nan 0 nan nan nan 0 2 2 6 7 7 7 5 nan nan nan nan nan nan nan nan nan nan nan nan nan nan nan nan nan nan nan nan
27 17 18 14 14 13 19 28 38 38 37 37 39 39 39 13 3 3 nan nan nan nan nan nan nan nan nan nan nan nan nan nan nan nan nan nan nan nan nan nan nan nan 0 2 2 4 4 2 2 2 0 nan 0 0 0 nan nan 0 nan 1 1 3 6 8 8 7 4 nan nan nan nan nan nan nan nan nan nan nan nan nan nan nan nan nan nan nan
30 25 30 27 27 19 16 18 30 30 32 32 34 34 36 19 0 0 nan nan nan nan nan nan nan nan nan nan nan nan nan nan nan nan nan nan nan nan nan nan nan nan nan nan nan nan nan 4 4 10 17 5 1 1 nan 0 0 0 nan 0 0 2 4 9 9 8 2 0 nan nan nan nan nan nan nan nan nan nan nan nan nan nan nan nan nan nan
24 23 29 32 32 29 24 25 29 29 30 36 35 35 34 17 nan nan nan nan nan nan nan nan nan nan nan nan nan nan nan nan nan nan nan nan nan nan nan nan nan nan nan nan nan nan nan nan nan 3 29 47 16 16 1 1 1 1 1 1 1 1 3 4 4 9 9 2 nan nan nan nan nan nan nan nan nan nan nan nan nan nan nan nan nan nan
CIN
nan nan nan nan nan nan nan -21 nan nan nan -47 -43 -43 -57 -51 nan nan nan nan nan nan nan nan nan nan nan -0 -0 -0 -0 -0 -0 -0 -0 -0 -0 -0 -0 -0 -0 -0 -0 -0 -0 -0 -0 -0 -0 -0 -0 -0 -0 -0 -0 -0 -0 -0 -0 -0 -0 -0 -0 -0 -0 -0 -0 -0 -0 -0 -0 -0 -0 -0 -0 -0 -0 -0 -0 -0 -0 -0 -0 -0 -0 -0
nan nan nan nan nan nan nan -21 -20 -20 nan -30 -29 -29 -45 nan nan nan nan nan nan nan nan nan nan nan nan nan -0 -0 -0 -0 -0 -0 -0 -0 -0 -0 -0 -0 -0 -0 -0 -0 -0 -0 -0 -0 -0 -0 -0 -0 -0 -0 -0 -0 -0 -0 -0 -0 -0 -0 -0 -0 -0 -0 -0 -0 -0 -0 -0 -0 -0 -0 -0 -0 -0 -0 -0 -0 -0 -0 -0 -0 -0 -0
nan nan nan nan nan nan nan nan nan nan nan -25 -22 -22 -25 nan nan nan nan nan nan nan nan nan nan nan nan nan -0 -0 -0 -0 -0 -0 -0 -0 -0 -0 -0 -0 -0 -0 -0 -0 -0 -0 -0 -0 -0 -0 -0 -0 -0 -0 -0 -0 -0 -0 -0 -0 -0 -0 -0 -0 -0 -0 -0 -0 -0 -0 -0 -0 -0 -0 -0 -0 -0 -0 -0 -0 -0 -0 -0 -0 -0 -0
nan nan nan nan nan nan nan nan nan nan -27 -30 -24 -24 -29 -36 nan nan nan nan nan nan nan nan nan nan nan nan -0 -0 -0 -0 -0 -0 -0 -0 -0 -0 -0 -0 -0 -0 -0 -0 -0 -0 -0 -0 -0 -0 -0 -0 -0 -0 -0 -0 -0 -0 -0 -0 -0 -0 -0 -0 -0 -0 -0 -0 -0 -0 -0 -0 -0 -0 -0 -0 -0 -0 -0 -0 -0 -0 -0 -0 -0 -0
-2 nan nan nan nan nan nan -10 nan nan -34 -34 -30 -30 -28 -38 nan nan nan nan nan nan nan nan nan nan nan nan -6 -6 -0 -0 -0 -0 -0 -0 -0 -0 -0 -0 -0 -0 -0 -0 -0 -0 -0 -0 -0 -0 -0 -0 -0 -0 -0 -0 -0 -0 -0 -0 -0 -0 -0 -0 -0 -0 -0 -0 -0 -0 -0 -0 -0 -0 -0 -0 -0 -0 -0 -0 -0 -0 -0 -0 -0 -0
nan -0 nan nan nan nan -13 -18 -19 -19 -26 nan nan nan nan nan nan nan nan nan nan nan nan nan nan nan nan nan -8 -8 -0 -0 -0 -0 -0 -0 -0 -0 -0 -0 -0 -0 -0 -0 -0 -0 -0 -0 -0 -0 -0 -0 -0 -0 -0 -0 -0 -0 -0 -0 -0 -0 -0 -0 -0 -0 -0 -0 -0 -0 -0 -0 -0 -0 -0 -0 -0 -0 -0 -0 -0 -0 -0 -0 -0 -0
-0 -0 -10 nan nan nan -13 -18 -13 -13 nan nan nan nan nan nan nan nan nan nan nan nan nan nan nan nan nan nan -0 -0 -0 -0 -0 -0 -0 -0 -0 -0 -0 -0 -0 -0 -0 -0 -0 -0 -0 -0 -0 -0 -0 -0 -0 -0 -0 -0 -0 -0 -0 -0 -0 -0 -0 -0 -0 -0 -0 -0 -0 -0 -0 -0 -0 -0 -0 -0 -0 -0 -0 -0 -0 -0 -0 -0 -0 -0
-9 -9 -8 nan nan -12 -8 -11 nan nan nan nan nan nan nan nan nan nan nan nan nan nan nan nan nan nan nan nan nan nan nan nan nan nan nan -0 -0 -0 -0 -0 -0 -0 -0 -0 -0 -0 -0 -0 -0 -0 -0 -0 -0 -0 -0 -0 -0 -0 -0 -0 -0 -0 -0 -0 -0 -0 -0 -0 -0 -0 -0 -0 -0 -0 -0 -0 -0 -0 -0 -0 -0 -0 -0 -0 -0 -0
nan nan -10 nan nan nan nan nan nan nan nan nan nan nan nan nan nan nan nan nan nan nan nan nan nan nan nan nan nan nan nan nan nan nan nan nan nan nan -0 -0 -0 -0 -0 -0 -0 -0 -0 -0 -0 -0 -0 -0 -0 -0 -0 -0 -0 -0 -0 -0 -0 -0 -0 -0 -0 -0 -0 -0 -0 -0 -0 -0 -0 -0 -0 -0 -0 -0 -0 -0 -0 -0 -0 -0 -0 -0
-9 -9 -10 -10 -10 -9 nan nan nan nan nan nan nan nan nan nan nan nan nan nan nan nan nan nan nan nan nan nan nan nan nan nan -0 -0 -0 -0 -0 -0 -0 -0 -0 -0 -0 -0 -0 -0 -0 -0 -0 -0 -0 -0 -0 -0 -0 -0 -0 -0 -0 -0 -0 -0 -0 -0 -0 -0 -0 -0 -0 -0 -0 -0 -0 -0 -0 -0 -0 -0 -0 -0 -0 -0 -0 -0 -0 -0
-7 -9 -11 nan nan -10 nan nan nan nan nan nan nan nan nan nan nan nan nan nan nan nan nan nan nan nan nan nan nan nan nan nan nan nan nan nan -0 -0 -0 -0 -0 -0 -0 -0 -0 -0 -0 -0 -0 -0 -0 -0 -0 -0 -0 -0 -0 -0 -0 -0 -0 -0 -0 -0 -0 -0 -0 -0 -0 -0 -0 -0 -0 -0 -0 -0 -0 -0 -0 -0 -0 -0 -0 -0 -0 -0
-8 -8 -10 -14 -14 -10 nan nan nan nan nan nan nan nan nan nan nan nan nan nan nan nan nan nan nan nan nan nan nan nan nan nan nan nan nan nan nan nan nan nan nan -0 -0 -0 -0 -0 -0 -0 -0 -0 -0 -0 -0 -0 -0 -0 -0 -0 -0 -0 -0 -0 -0 -0 -0 -0 -0 -0 -0 -0 -0 -0 -0 -0 -0 -0 -0 -0 -0 -0 -0 -0 -0 -0 -0 -0
nan nan nan -9 -9 -7 nan nan nan nan nan nan nan nan nan nan nan nan nan nan nan nan nan nan nan nan nan nan nan nan nan nan nan nan nan nan nan nan nan nan nan nan nan nan nan nan -0 -0 -0 -0 -0 -0 -0 -0 -0 -0 -0 -0 -0 -0 -0 -0 -0 -0 -0 -0 -0 -0 -0 -0 -0 -0 -0 -0 -0 -0 -0 -0 -0 -0 -0 -0 -0 -0 -0 -0
nan nan nan nan nan nan nan nan nan nan nan nan nan nan nan nan nan nan nan nan nan nan nan nan nan nan nan nan nan nan nan nan nan nan nan nan nan nan nan nan nan nan nan nan nan nan -0 -0 -0 -0 -0 -0 -0 -0 -0 -0 -0 -0 -0 -0 -0 -0 -0 -0 -0 -0 -0 -0 -0 -0 -0 -0 -0 -0 -0 -0 -0 -0 -0 -0 -0 -0 -0 -0 -0 -0
-6 -7 nan nan nan nan nan nan nan nan nan nan nan nan nan nan nan nan nan nan nan nan nan nan nan nan nan nan nan nan nan nan nan nan nan nan nan nan nan nan nan nan nan nan nan nan -0 -0 -0 nan -0 -0 -0 -0 -0 -0 -0 -0 -0 -0 -0 -0 -0 -0 -0 -0 -0 -0 -0 -0 -0 -0 -0 -0 -0 -0 -0 -0 -0 -0 -0 -0 -0 -0 -0 -0
-8 -6 nan -0 -0 nan nan nan nan nan nan nan nan nan nan nan nan nan nan nan nan nan nan nan nan nan nan nan nan nan nan nan nan nan nan nan nan nan nan nan nan nan nan nan nan nan nan nan nan nan nan -0 -0 -0 -0 -0 -0 -0 -0 -0 -0 -0 -0 -0 -0 -0 -0 -0 -0 -0 -0 -0 -0 -0 -0 -0 -0 -0 -0 -0 -0 -0 -0 -0 -0 -0
-8 nan -6 -4 -4 nan nan nan nan nan nan nan nan nan nan nan nan nan nan nan nan nan nan nan nan nan nan nan nan nan nan nan nan nan nan nan nan nan nan nan nan nan nan nan nan nan nan nan nan nan nan -0 -0 -0 -0 -0 -0 -0 -0 -0 -0 -0 -0 -0 -0 -0 -0 -0 -0 -0 -0 -0 -0 -0 -0 -0 -0 -0 -0 -0 -0 -0 -0 -0 -0 -0
-5 -4 -5 -5 -5 nan nan nan nan nan nan nan nan nan nan nan nan nan nan nan nan nan nan nan nan nan nan nan nan nan nan nan nan nan nan nan nan nan nan nan nan nan nan nan nan nan nan nan nan nan nan -0 -0 -0 -0 -0 -0 -0 -0 -0 -0 -0 -0 -0 -0 -0 -0 -0 -0 -0 -0 -0 -0 -0 -0 -0 -0 -0 -0 -0 -0 -0 -0 -0 -0 -0
-2 -4 -4 -5 -5 nan nan nan nan nan nan nan nan nan nan nan nan nan nan nan nan nan nan nan nan nan nan nan nan nan nan nan nan nan nan nan nan nan nan nan nan nan nan nan nan nan nan nan nan nan -0 -0 -0 -0 -0 -0 -0 -0 -0 -0 -0 -0 -0 -0 -0 -0 -0 -0 -0 -0 -0 -0 -0 -0 -0 -0 -0 -0 -0 -0 -0 -0 -0 -0 -0 -0
nan nan nan nan nan nan nan nan nan nan nan nan nan nan nan nan nan nan nan nan nan nan nan nan nan nan nan nan nan nan nan nan nan nan nan nan nan nan nan nan nan nan nan nan nan nan nan nan nan nan -0 -0 -0 -0 -0 -0 -0 -0 -0 -0 -0 -0 -0 -0 -0 -0 -0 -0 -0 -0 -0 -0 -0 -0 -0 -0 -0 -0 -0 -0 -0 -0 -0 -0 -0 -0
nan nan nan nan nan nan nan nan nan nan nan nan nan nan nan nan nan nan nan nan nan nan nan nan nan nan nan nan nan nan nan nan nan nan nan nan nan nan nan nan nan nan nan nan nan nan nan nan nan nan -0 -0 -0 -0 -0 -0 -0 -0 -0 -0 -0 -0 -0 -0 -0 -0 -0 -0 -0 -0 -0 -0 -0 -0 -0 -0 -0 -0 -0 -0 -0 -0 -0 -0 -0 -0
-2 -10 nan -3 -3 -1 -1 nan nan nan nan nan nan nan nan nan nan nan nan nan nan nan nan nan nan nan nan nan nan nan nan nan nan nan nan nan nan nan nan nan nan nan nan nan nan nan nan nan nan nan -0 -0 -0 -0 -0 -0 -0 -0 -0 -0 -0 -0 -0 -0 -0 -0 -0 -0 -0 -0 -0 -0 -0 -0 -0 -0 -0 -0 -0 -0 -0 -0 -0 -0 -0 -0
-2 -4 -8 -8 -8 nan nan nan nan nan nan nan -3 -3 nan nan nan nan nan nan nan nan nan nan nan nan nan nan nan nan nan nan nan nan nan nan nan nan nan nan nan nan nan nan nan nan nan nan nan nan -0 -0 -0 -0 -0 -0 -0 -0 -0 -0 -0 -0 -0 -0 -0 -0 -0 -0 -0 -0 -0 -0 -0 -0 -0 -0 -0 -0 -0 -0 -0 -0 -0 -0 -0 -0
-4 -5 -7 -8 -8 nan nan nan nan nan nan nan nan nan nan nan nan nan nan nan nan -8 -8 nan nan nan nan nan nan nan nan nan nan nan nan nan nan nan nan nan nan nan nan nan nan nan nan nan nan nan nan -0 -0 -0 -0 -0 -0 -0 -0 -0 -0 -0 -0 -0 -0 -0 -0 -0 -0 -0 -0 -0 -0 -0 -0 -0 -0 -0 -0 -0 -0 -0 -0 -0 -0 -0
nan nan -7 -8 -8 nan nan nan nan nan nan nan nan nan nan nan nan nan nan nan nan nan -4 nan nan nan nan -2 nan nan nan nan nan nan nan nan nan nan nan nan nan nan nan nan nan nan nan nan nan nan nan -0 -0 -0 -0 -0 -0 -0 -0 -0 -0 -0 -0 -0 -0 -0 -0 -0 -0 -0 -0 -0 -0 -0 -0 -0 -0 -0 -0 -0 -0 -0 -0 -0 -0 -0
-4 -4 -4 -3 -3 -0 -0 -0 -0 -0 -1 nan nan nan nan -3 nan nan nan nan nan nan nan nan nan nan nan nan nan nan nan nan nan nan nan nan nan nan nan nan nan nan nan nan nan nan nan nan nan nan nan nan -0 -0 -0 -0 -0 -0 -0 -0 -0 -0 -0 -0 -0 -0 -0 -0 -0 -0 -0 -0 -0 -0 -0 -0 -0 -0 -0 -0 -0 -0 -0 -0 -0 -0
-0 -0 -0 -0 -0 -0 -0 -0 -0 -0 -0 -0 -3 -3 nan nan nan nan nan nan nan nan nan nan nan nan nan nan nan nan nan nan nan nan nan nan nan nan nan nan nan nan nan nan nan nan nan nan nan nan nan nan -1 -1 -0 -0 -0 -0 -0 -0 -0 -0 -0 -0 -0 -0 -0 -0 -0 -0 -0 -0 -0 -0 -0 -0 -0 -0 -0 -0 -0 -0 -0 -0 -0 -0
-0 -0 -0 -0 -0 -0 -0 -0 -0 -0 -0 -0 -0 -0 -0 nan nan nan nan nan nan nan nan nan nan nan nan nan nan nan nan nan nan nan nan nan nan nan nan nan nan nan nan nan nan nan -0 nan nan nan nan nan nan nan -0 -0 -0 -0 -0 -0 -0 -0 -0 -0 -0 -0 -0 -0 -0 -0 -0 -0 -0 -0 -0 -0 -0 -0 -0 -0 -0 -0 -0 -0 -0 -7
-0 -0 -0 -0 -0 -0 -0 -0 -0 -0 -0 -0 -0 -0 -0 nan nan nan nan nan nan nan nan nan nan nan nan nan nan nan nan nan nan nan nan nan nan nan nan nan nan nan nan nan nan nan nan nan nan nan nan nan nan nan -2 -0 -0 -0 -0 -0 -0 -0 -0 -0 -0 -0 -0 -0 -0 -0 -0 -0 -0 -0 -0 -0 -0 -0 -0 -0 -0 -0 -0 -4 -4 -8
-3 -0 -0 -0 -0 -0 -0 -0 -0 -0 -0 -0 -0 -0 -0 nan nan nan nan nan nan nan nan nan nan nan nan nan nan nan nan nan nan nan nan nan nan nan nan nan nan nan nan nan nan nan nan nan nan nan nan nan nan nan nan -5 -5 -1 -0 -0 -0 -0 -0 -0 -0 -0 -0 -0 -0 -0 -0 -0 -0 -0 -0 -0 -0 -0 -0 -0 -0 -0 -6 -9 -9 -7
-7 -5 -5 -2 -2 -2 -4 -7 -2 -2 -0 -0 -0 -0 -0 nan nan nan nan nan nan nan nan nan nan nan nan nan nan nan nan nan nan nan nan nan nan nan nan nan nan nan nan nan nan nan nan nan nan nan nan nan nan nan nan nan nan nan nan -1 -1 -0 -0 -0 -0 -0 -0 -0 -0 -0 -0 -0 -0 -0 -0 -0 -0 -0 -0 -0 -0 -0 -8 -6 -6 -5
-4 -6 nan nan nan nan nan nan nan nan -10 -8 -6 -6 -2 -2 nan nan nan nan nan nan nan nan nan nan nan nan nan nan nan nan nan nan nan nan nan nan nan nan nan nan nan nan nan nan nan nan nan nan nan nan nan nan nan nan nan nan nan nan nan nan -0 -0 -0 -0 -0 -0 -0 -0 -0 -0 -0 -0 -0 -0 -0 -0 -0 -0 -0 -0 -1 nan nan -0
-2 -3 -4 -5 -5 nan nan nan nan nan nan -8 -7 -7 -6 -5 -3 -3 nan nan nan nan nan nan nan nan nan nan nan nan nan nan nan nan nan nan nan nan nan nan nan nan nan nan nan nan nan nan nan nan nan nan nan nan nan -9 -9 nan nan nan nan nan -0 -0 -0 -0 -0 -0 -0 -0 -0 -0 -0 -0 -0 -0 -0 -0 -0 -0 -0 -0 -0 -0 -0 -0
-3 -1 -2 -2 -2 nan nan nan nan nan nan nan -5 -5 -6 -7 -6 -6 -4 nan nan nan nan nan nan nan nan nan nan nan nan nan nan nan -19 nan nan nan nan nan nan nan nan nan nan nan nan nan nan nan nan nan nan nan nan nan nan -11 nan nan nan nan nan -1 -1 -1 -1 -1 -1 -1 -0 -0 -0 -0 -0 -0 -0 -0 -0 -0 -0 -0 -0 -0 -0 -0
-3 -3 -3 -2 -2 -1 nan nan nan nan nan nan nan nan -6 -7 -8 -8 -6 nan nan nan nan nan nan nan nan nan nan nan nan nan nan nan -14 nan nan nan nan nan nan nan nan nan nan nan nan nan nan -3 nan nan nan nan nan nan nan nan nan nan nan nan nan nan nan -5 -1 -1 -1 -1 -2 -2 -1 -1 -0 -0 -0 -0 -0 -0 -0 -0 -0 -0 -0 -0
-3 -3 -3 -4 -4 -2 -3 nan nan nan nan nan nan nan nan nan -7 -7 -7 nan nan nan nan nan nan nan nan nan nan nan nan nan nan nan -13 nan nan nan nan nan nan nan nan nan nan nan nan nan nan -3 -1 nan nan nan nan nan nan nan nan nan nan nan nan nan nan -16 -7 -1 -0 -0 -0 -1 -1 -1 -0 -0 -0 -0 -0 -0 -0 -0 -0 -0 -0 -0
-1 -2 -4 -6 -6 -4 -2 nan nan nan nan nan nan nan nan nan nan nan -7 -7 -7 nan nan nan nan nan nan nan nan nan nan nan nan nan nan nan nan nan nan nan nan nan nan nan nan nan nan nan nan nan nan nan nan nan nan nan nan nan nan nan nan nan nan nan nan nan nan -3 -1 -1 -1 -1 -0 -0 -0 -0 -0 -0 -0 -0 -0 -0 -0 -0 -0 -0
-2 -3 -5 -8 -8 -8 nan -3 nan nan nan nan nan nan nan nan nan nan nan nan nan nan nan nan nan nan nan nan nan nan nan nan nan nan nan nan nan nan nan nan nan nan nan nan nan nan nan nan nan nan nan nan -6 -6 -7 nan nan nan nan nan nan nan nan nan nan nan nan -12 -3 -3 -0 -1 -3 -3 -1 -0 -1 -1 -1 -1 -1 -0 -0 -0 -0 -0
-2 -4 -6 -7 -7 -9 -10 -8 nan nan nan nan nan nan nan nan nan nan nan nan nan nan nan nan nan nan nan nan nan nan nan nan nan nan nan nan nan nan nan nan nan nan nan nan nan nan nan nan nan nan nan nan nan nan nan nan nan nan nan nan nan nan nan nan nan nan nan nan -6 -6 -6 nan nan nan nan nan nan nan -2 -3 -3 -0 -2 -3 -3 -0
-2 -5 -6 -6 -6 -9 -7 -9 nan nan nan nan nan nan nan nan nan nan nan nan nan -4 -3 -2 -2 -2 nan nan -2 -2 nan nan nan nan nan nan nan nan nan nan nan nan nan nan nan nan nan nan nan nan nan nan nan nan nan nan nan nan -10 nan nan nan -13 nan nan nan nan nan nan nan nan nan nan nan nan nan nan nan nan nan nan -7 -2 -5 -5 -6
-2 -3 -5 -8 -8 -8 -5 -6 -13 -13 -19 nan nan nan nan nan nan nan nan nan nan -2 -2 -1 -1 -1 nan nan nan nan -3 nan nan nan nan nan nan nan nan nan nan nan nan nan nan nan nan nan nan nan nan nan nan nan nan nan nan -4 -2 nan nan nan nan nan nan nan nan nan nan nan nan nan nan nan nan nan nan nan nan nan nan nan nan nan nan nan
-1 -2 -5 -8 -8 -7 -6 -5 -4 -4 -7 nan nan nan nan nan nan nan nan nan nan nan nan nan nan nan nan nan nan nan nan nan nan nan nan nan nan nan nan nan nan nan nan nan nan nan nan nan nan nan nan nan nan nan nan -15 -15 -8 -4 nan nan nan nan -10 -10 nan nan nan nan nan nan nan nan nan nan nan nan nan nan nan nan nan nan nan nan nan
-2 -2 -5 -7 -7 -7 -4 -3 -3 -3 -3 -4 nan nan nan nan nan nan nan nan nan nan nan nan nan nan nan nan nan nan nan nan nan nan nan nan nan nan nan nan nan nan nan nan nan nan nan nan nan nan nan nan nan nan nan -12 -12 -14 -11 -8 -8 nan nan nan nan nan nan nan nan nan nan nan nan nan nan nan nan nan nan nan nan nan nan nan nan nan
-1 -3 -5 -6 -6 -6 -4 -2 -2 -2 -2 -2 -10 -10 nan nan nan nan nan nan nan nan nan nan nan nan nan nan nan nan nan nan nan nan nan nan nan nan nan nan nan nan nan nan nan nan nan nan nan nan nan nan nan nan nan nan nan -17 -18 -10 -10 -11 nan nan nan nan nan nan nan nan nan nan nan nan nan nan nan nan nan nan nan nan nan nan nan nan
-2 -3 -4 -5 -5 -4 -3 -2 -2 -2 -1 -1 -1 -1 nan nan nan nan nan nan nan nan nan nan nan nan nan nan nan nan nan nan nan nan nan -2 -0 -0 nan nan nan nan nan nan nan nan nan nan nan nan nan nan nan nan nan nan nan -17 -9 -8 -8 -10 -23 nan nan nan nan nan nan nan nan nan nan nan nan nan nan nan nan nan nan nan nan nan nan nan
-3 -3 -3 -5 -5 -4 -2 -2 -3 -3 -3 -2 -3 -3 -3 nan nan nan nan nan nan nan nan nan nan nan nan nan nan nan nan nan nan nan nan -7 -4 -4 -3 nan nan nan nan nan nan nan nan nan nan nan nan nan nan nan -11 nan nan nan -14 -7 -7 -9 -13 -16 -16 nan nan nan nan nan nan nan nan nan nan nan nan nan nan nan nan nan nan nan nan nan
-7 -5 -6 -6 -6 -4 -4 -4 -3 -3 -2 -2 -4 -4 -5 nan nan nan nan nan nan nan nan nan nan nan nan nan nan nan nan nan nan nan nan nan nan nan -5 -4 -4 -5 nan nan nan nan nan nan nan nan nan nan nan nan nan nan nan nan nan -15 -15 -11 -10 -15 -15 -20 nan nan nan nan nan nan nan nan nan nan nan nan nan nan nan nan nan nan nan nan
-2 -1 -4 -5 -5 -4 -3 -3 -2 -2 -1 -1 -2 -2 -3 nan nan nan nan nan nan nan nan nan nan nan nan nan nan nan nan nan nan nan nan nan nan nan nan -6 -6 -4 -3 -4 -4 -4 -8 -16 -16 nan nan nan nan nan -7 nan nan nan -17 -15 -15 -12 -11 -14 -14 -20 nan nan nan nan nan nan nan nan nan nan nan nan nan nan nan nan nan nan nan nan
-3 -3 -3 -3 -3 -3 -3 -3 -2 -2 -2 -2 -3 -3 -3 -1 -0 -0 nan nan nan nan nan nan nan nan nan nan nan nan nan nan nan nan nan nan nan nan nan nan nan nan -5 -2 -2 -3 -5 -8 -8 -10 -11 nan -8 -8 -10 nan nan -14 nan -16 -16 -13 -12 -14 -14 -17 -18 nan nan nan nan nan nan nan nan nan nan nan nan nan nan nan nan nan nan nan
-2 -4 -2 -2 -2 -3 -4 -4 -2 -2 -2 -3 -3 -3 -4 -4 -12 -12 nan nan nan nan nan nan nan nan nan nan nan nan nan nan nan nan nan nan nan nan nan nan nan nan nan nan nan nan nan -3 -3 -3 -3 -5 -9 -9 nan -13 -13 -15 nan -18 -18 -15 -13 -12 -12 -15 -25 -29 nan nan nan nan nan nan nan nan nan nan nan nan nan nan nan nan nan nan
-2 -4 -3 -2 -2 -2 -3 -3 -2 -2 -3 -2 -2 -2 -3 -5 nan nan nan nan nan nan nan nan nan nan nan nan nan nan nan nan nan nan nan nan nan nan nan nan nan nan nan nan nan nan nan nan nan -2 -0 -0 -2 -2 -9 -10 -10 -12 -11 -14 -14 -18 -16 -17 -17 -12 -11 -19 nan nan nan nan nan nan nan nan nan nan nan nan nan nan nan nan nan nan
Wind_Speed
9 8 8 9 10 10 9 10 11 11 10 9 8 7 7 7 6 7 9 9 10 10 10 10 11 12 14 17 20 22 24 24 25 25 25 25 25 25 25 25 26 26 26 26 26 26 26 26 26 26 26 26 27 27 28 28 28 28 29 30 31 31 31 31 31 30 29 28 28 27 26 25 24 24 24 24 24 23 23 22 22 23 23 23 22 22
10 9 8 10 11 11 10 11 11 11 10 10 9 8 7 8 7 6 6 8 9 9 9 10 11 12 14 15 19 22 23 24 25 25 25 25 25 25 25 25 26 26 26 26 27 27 27 27 27 27 27 26 26 27 27 27 28 28 28 29 30 30 31 31 31 31 30 30 29 29 28 27 26 25 25 25 24 24 23 23 23 23 23 23 22 22
10 9 8 9 10 11 10 10 10 10 11 11 10 9 9 9 8 7 6 7 8 8 8 9 10 11 13 14 17 20 22 24 25 25 25 25 25 25 25 25 25 26 26 26 27 27 27 27 27 27 27 27 27 26 26 27 27 27 28 28 29 29 30 30 30 30 30 30 30 29 29 28 27 27 26 26 26 25 24 24 23 23 23 23 23 22
10 10 9 8 9 10 11 11 10 10 10 10 10 10 11 9 8 7 6 7 7 8 8 9 10 11 11 11 14 18 21 23 24 24 24 24 24 25 25 25 25 26 26 26 27 27 27 27 27 27 27 27 27 26 26 26 26 27 27 28 28 28 29 29 29 29 29 29 29 29 28 28 28 27 27 27 27 26 25 24 24 23 23 23 22 22
10 10 9 8 8 9 10 10 10 9 8 8 9 9 10 8 7 7 7 8 8 8 8 9 10 11 10 10 12 16 20 22 23 24 24 24 24 24 25 25 25 26 26 26 27 27 27 27 27 27 27 27 27 27 26 26 26 26 26 27 28 28 28 29 29 28 28 28 28 27 27 27 27 27 27 27 27 26 25 24 24 23 23 23 22 22
10 10 9 8 8 8 8 8 8 7 7 7 7 8 8 7 6 6 7 7 8 8 8 8 9 10 10 10 13 16 19 21 22 23 23 23 24 24 24 25 25 26 26 26 27 27 27 27 27 27 27 27 27 27 27 26 26 26 26 27 27 28 28 28 28 28 28 27 27 26 26 26 26 26 27 26 26 25 24 23 23 23 23 23 23 23
10 9 9 8 7 7 6 7 7 7 6 6 6 7 7 6 6 6 7 7 8 8 8 8 9 10 11 12 14 16 18 19 21 21 22 22 23 23 23 24 25 25 26 26 27 27 27 27 27 27 27 27 27 27 27 27 26 26 26 26 27 27 28 29 28 28 28 27 27 26 26 26 26 26 25 25 25 24 23 23 22 23 23 23 23 23
10 9 9 8 7 7 6 7 7 7 7 6 6 6 6 6 6 7 7 8 8 8 8 8 9 9 10 11 13 13 13 14 15 15 17 18 19 20 21 22 23 24 25 26 26 27 27 27 27 27 27 27 27 27 27 27 27 27 26 26 26 26 27 28 29 29 28 28 27 27 27 26 26 25 25 24 24 24 23 23 23 24 24 24 24 24
11 10 9 9 8 7 7 7 7 7 7 6 6 6 6 7 7 7 7 7 8 7 7 8 9 9 9 10 10 11 11 11 11 11 12 12 12 14 16 18 20 22 23 24 25 26 26 27 27 27 27 27 27 27 27 28 28 27 27 26 26 26 26 27 28 29 29 29 28 28 27 27 26 25 25 25 24 24 23 23 24 24 25 25 25 25
11 11 10 9 8 8 7 7 7 7 7 6 6 6 6 7 8 8 8 8 7 7 7 8 8 9 9 9 9 9 10 11 12 13 14 13 13 14 15 15 16 18 21 22 23 25 25 26 27 27 27 27 27 27 27 28 28 28 28 27 26 26 26 26 27 29 29 29 29 28 28 27 27 26 26 25 25 24 24 23 23 24 25 25 25 24
10 10 9 9 8 7 7 7 7 6 7 6 6 6 6 7 7 8 9 9 8 7 7 8 8 8 8 7 8 8 8 8 10 11 13 14 15 16 16 16 16 17 20 21 22 24 24 25 26 26 27 27 26 26 26 27 28 28 28 27 27 26 25 26 27 28 29 29 29 29 29 28 27 27 27 26 26 25 24 23 23 23 24 24 24 24
9 8 7 7 7 7 7 7 6 6 5 5 5 6 7 7 7 7 9 9 9 9 8 8 8 7 7 7 7 7 6 6 7 7 7 9 10 11 12 12 13 15 16 18 19 21 23 24 25 25 25 26 26 26 26 26 27 28 28 28 27 26 26 25 26 27 28 29 29 29 29 29 28 28 28 27 27 26 24 24 23 23 24 24 24 23
8 7 6 7 7 7 6 6 6 5 5 6 7 7 8 7 7 7 8 9 9 9 8 8 7 7 7 7 6 5 5 5 5 5 5 5 6 6 6 7 8 9 10 11 12 13 17 20 22 23 23 24 24 25 25 25 26 27 27 28 28 27 26 26 25 26 27 28 28 29 29 29 29 29 29 28 27 26 25 24 24 24 24 24 23 23
8 7 7 8 8 7 6 6 6 6 7 7 8 8 8 7 7 7 7 8 8 8 7 8 8 7 6 7 6 6 5 5 4 5 5 5 5 5 5 6 6 7 7 7 8 9 12 13 14 16 19 20 22 23 23 24 25 26 27 27 27 27 27 26 25 25 26 26 27 28 28 29 29 29 29 28 27 26 25 25 25 25 25 24 23 23
8 7 8 8 8 7 7 7 7 8 8 8 8 7 7 7 7 7 7 7 7 7 6 7 8 7 6 6 6 5 5 4 4 5 6 6 5 5 5 6 6 7 6 7 7 8 10 10 10 10 12 15 17 19 20 21 23 25 25 26 27 27 27 26 25 25 25 26 26 27 28 28 29 29 28 28 27 26 26 25 25 25 25 24 23 23
7 7 8 9 9 8 8 7 7 8 8 7 7 6 6 6 6 6 7 7 6 5 5 6 7 7 6 5 5 5 5 5 5 5 6 6 6 5 5 6 6 7 7 7 7 7 8 8 8 9 10 13 16 19 20 21 22 23 24 25 26 26 26 26 25 25 24 25 26 27 28 28 28 28 28 27 27 26 26 25 25 25 25 24 23 23
7 7 8 9 9 9 8 7 7 7 6 5 5 5 5 6 6 6 6 5 5 4 5 5 5 5 4 4 5 5 6 5 5 5 6 6 6 5 5 6 6 7 7 7 7 7 7 7 7 8 9 12 16 18 19 20 21 22 23 24 24 25 25 25 24 23 23 24 25 26 28 28 28 28 28 27 26 26 25 25 25 25 24 24 23 23
8 8 8 8 9 8 8 6 6 5 5 4 4 5 5 5 5 5 5 5 5 5 5 5 5 5 4 4 4 4 5 5 5 5 6 6 5 5 5 6 6 7 7 7 7 7 6 7 7 8 9 13 16 17 18 19 20 20 21 22 23 23 24 23 23 22 21 22 23 25 27 28 29 28 28 27 26 25 25 25 24 24 24 24 23 23
8 7 7 8 7 7 6 6 5 4 4 4 4 4 4 5 5 5 6 6 6 6 6 6 6 6 5 5 4 3 4 5 5 5 5 5 5 4 5 5 6 7 7 7 7 7 6 7 8 10 13 15 17 18 18 18 19 19 20 21 21 22 22 23 22 21 20 20 21 23 26 28 28 28 28 27 26 25 25 25 25 25 24 24 23 24
7 7 7 6 6 6 6 6 6 5 5 5 5 4 5 5 5 6 6 6 6 6 6 7 7 7 6 6 5 4 3 3 4 4 5 5 5 5 4 5 6 7 7 7 7 6 6 6 8 10 14 15 17 18 18 19 19 19 20 20 21 21 22 22 22 21 20 20 20 21 24 26 27 28 27 26 26 25 25 25 25 25 24 24 23 24
7 7 6 5 5 5 5 6 6 6 6 5 5 5 6 5 6 6 6 6 7 7 7 7 7 7 5 5 5 4 3 3 4 4 4 4 4 4 4 5 6 7 7 7 6 6 6 6 6 7 10 14 16 17 18 19 19 20 20 20 21 22 22 23 23 22 21 20 19 19 21 22 24 25 26 26 25 25 25 25 25 25 24 24 24 24
9 7 6 6 5 5 6 6 7 7 7 6 6 5 5 5 6 7 7 7 7 7 7 7 7 6 5 5 5 5 4 4 4 4 3 4 5 5 4 4 5 6 7 7 6 6 6 6 6 7 10 14 16 17 18 19 19 20 20 21 21 22 22 23 24 23 22 21 20 19 19 20 21 22 23 24 24 24 25 25 25 24 24 24 24 25
11 10 9 8 7 7 6 6 6 7 7 7 7 7 5 6 6 6 6 6 6 6 6 6 6 5 5 5 5 5 5 4 4 3 3 4 5 5 4 4 5 6 7 6 6 5 6 6 6 7 10 14 16 17 18 18 19 19 20 20 21 22 22 23 24 24 23 22 21 20 20 20 20 20 21 22 23 23 24 25 25 24 24 24 25 25
11 11 10 9 8 7 6 6 6 6 6 7 7 7 7 7 7 6 5 5 5 4 4 4 5 5 5 6 6 6 6 5 4 4 4 5 5 5 4 4 5 6 6 6 5 5 5 6 6 6 7 12 15 17 18 18 19 19 20 20 21 21 22 23 23 24 24 23 23 22 22 21 21 21 21 21 21 22 23 24 24 24 25 25 25 26
11 11 10 9 9 9 8 8 8 7 7 7 7 7 8 8 8 7 6 5 5 4 4 4 5 6 5 6 6 6 6 5 5 4 4 4 5 5 4 4 5 5 6 5 5 5 5 5 5 5 6 9 12 16 17 18 19 19 20 20 21 21 21 22 23 23 24 24 24 24 24 24 23 22 22 21 21 21 22 23 23 24 24 24 25 25
15 14 14 15 16 17 17 16 15 14 13 10 9 8 8 7 7 7 6 6 6 6 5 6 7 7 6 5 5 5 5 5 5 5 4 4 4 5 5 4 4 5 5 4 4 5 5 5 5 5 5 7 10 13 16 17 18 19 20 20 20 21 21 22 22 23 24 24 25 25 25 25 25 24 24 23 22 22 22 22 22 23 23 23 24 24
24 24 25 24 24 24 24 23 23 22 21 18 15 11 9 7 7 7 8 8 7 7 7 7 8 8 7 6 5 5 5 5 5 5 5 4 4 5 5 4 4 5 5 4 4 5 6 6 6 6 5 5 7 10 14 16 18 19 19 20 20 21 21 21 22 22 23 24 24 25 25 26 26 26 26 25 24 24 23 23 23 22 22 21 20 20
27 28 28 28 28 28 27 27 26 25 25 23 21 18 13 9 8 8 9 8 8 7 7 8 8 7 7 6 5 5 4 5 5 5 5 4 4 4 4 4 4 4 4 4 4 5 6 6 6 6 6 6 6 7 11 14 16 17 18 19 20 20 21 21 22 22 23 23 24 24 25 26 26 26 26 26 26 25 25 24 24 23 21 18 13 11
22 24 26 27 28 28 28 27 26 26 26 25 24 22 16 10 9 9 9 8 7 7 8 8 8 7 6 6 5 5 5 5 5 5 5 4 4 4 4 4 4 4 4 3 3 4 5 5 5 6 6 7 7 6 7 10 12 13 15 17 18 19 20 21 21 22 22 23 23 24 25 25 26 26 27 27 27 27 27 26 25 22 17 14 11 10
15 17 19 21 23 23 23 21 21 22 24 25 25 22 17 11 9 9 8 7 7 8 8 8 8 7 6 5 4 4 5 5 5 5 5 5 4 4 4 4 4 4 3 2 2 3 4 4 5 5 6 7 7 6 5 6 7 8 9 11 13 15 17 19 20 21 22 22 23 24 24 25 25 26 26 27 27 28 28 28 25 19 12 11 10 10
11 11 12 13 14 15 15 14 14 15 18 20 20 19 15 10 8 8 7 7 7 7 8 8 7 7 6 5 4 4 4 4 5 6 6 5 5 4 4 4 4 4 4 3 2 2 3 3 3 4 5 6 6 6 6 5 5 5 5 6 7 9 13 16 18 19 20 21 22 23 24 24 25 26 27 27 28 29 29 30 26 20 12 10 10 10
10 10 9 9 10 10 9 10 10 10 11 12 12 12 11 10 9 8 7 7 7 7 8 8 7 7 7 6 6 5 4 3 5 7 7 5 4 4 4 4 4 4 4 4 4 3 3 2 2 2 3 4 4 4 5 5 5 5 5 5 5 6 10 12 14 15 15 18 19 21 22 23 24 25 27 28 29 30 31 32 28 22 12 10 9 9
10 9 9 9 8 8 8 8 8 8 8 8 8 8 9 9 9 9 7 7 7 8 8 8 8 8 7 7 7 6 5 4 5 7 8 5 4 4 4 4 4 4 4 4 5 4 3 3 3 2 2 2 3 3 4 5 5 5 5 5 5 5 7 8 9 10 10 12 14 16 18 20 21 23 25 27 28 29 31 31 28 23 14 9 8 8
9 9 9 9 9 8 8 8 8 7 7 7 8 8 7 8 8 8 8 7 8 8 8 8 8 8 8 7 7 7 6 5 6 7 8 6 4 4 4 4 4 4 4 4 4 4 4 4 4 3 2 2 2 3 3 4 5 5 5 5 5 4 5 6 6 6 7 7 7 8 11 12 15 17 19 21 23 24 26 26 25 22 17 11 8 7
8 9 9 9 9 8 8 8 8 8 8 7 8 8 7 7 7 7 7 7 8 8 8 9 9 9 8 7 7 6 6 5 6 8 8 7 5 4 4 5 5 4 4 4 4 4 4 5 5 5 3 3 3 3 3 3 4 4 4 4 4 4 4 4 4 5 5 5 5 5 5 6 7 9 11 13 15 17 19 20 21 20 18 14 10 7
8 8 8 9 8 8 8 8 8 8 8 7 7 7 7 7 7 7 7 7 7 8 8 9 9 9 8 8 8 7 6 5 6 8 8 7 6 5 4 5 5 5 5 5 4 4 4 4 5 5 5 4 3 3 3 3 3 3 4 4 4 4 4 4 4 4 4 4 4 4 4 4 5 5 6 9 11 13 15 16 17 18 18 16 14 11
8 8 8 7 7 7 7 7 7 6 7 6 6 7 7 7 7 7 7 7 7 7 8 9 9 9 10 9 8 7 6 5 5 6 8 7 6 6 5 5 5 5 5 5 5 4 4 4 4 5 5 5 4 3 2 3 3 3 4 4 4 4 4 4 4 4 4 4 4 4 4 4 4 4 5 8 10 11 13 15 16 17 18 18 17 15
8 8 7 6 6 6 6 6 6 6 6 6 6 6 7 7 7 7 7 7 7 7 7 7 8 9 11 11 10 8 6 5 5 6 7 7 7 6 6 5 5 6 6 5 5 5 5 5 5 4 4 4 4 4 4 3 3 3 4 4 3 3 3 4 4 4 4 4 5 5 5 4 4 4 4 5 6 7 8 10 12 14 16 16 17 17
9 8 8 7 7 6 6 6 6 6 5 6 6 6 7 7 7 7 6 6 7 7 8 7 7 7 9 10 11 10 9 7 7 6 7 7 6 6 6 6 6 6 6 5 5 5 5 5 5 4 4 3 4 4 4 3 3 3 3 3 3 3 4 4 4 4 4 4 5 5 5 4 4 4 3 3 4 4 5 6 7 9 10 10 11 14
8 8 8 8 7 6 6 6 6 5 5 5 6 6 6 6 5 5 6 6 6 7 8 7 7 6 7 8 9 10 10 8 7 7 6 6 6 6 6 6 6 6 5 5 5 5 6 5 5 5 5 4 3 3 3 4 4 4 4 3 3 3 4 4 4 4 4 4 4 4 4 4 4 4 4 4 4 4 5 4 5 6 7 6 6 8
8 7 7 7 6 6 7 6 6 5 5 5 5 5 5 5 4 4 5 5 6 6 6 6 6 5 5 6 7 9 10 9 8 8 6 7 7 7 6 6 6 5 5 5 5 6 6 6 6 6 5 5 4 4 4 4 5 5 6 5 4 3 4 5 5 4 4 4 4 4 5 4 5 5 5 5 5 5 5 4 4 5 5 5 5 5
7 7 6 5 5 5 5 5 5 5 5 4 4 5 5 5 5 5 5 5 5 5 5 5 5 5 5 5 6 7 8 8 9 9 8 8 9 8 7 7 6 5 5 5 6 6 7 7 7 6 6 5 5 4 4 4 5 6 6 5 4 4 4 5 5 5 4 4 4 5 6 5 5 5 5 5 5 4 5 5 5 6 6 5 5 5
6 6 5 5 5 5 6 6 5 5 4 4 4 5 5 5 5 6 6 6 6 6 6 5 5 5 5 5 5 6 6 7 9 9 9 9 9 10 9 9 8 6 6 5 6 6 7 7 7 7 6 6 5 5 5 5 5 5 5 5 5 4 3 4 4 5 5 5 5 5 5 4 4 4 4 4 4 4 4 5 6 7 7 5 5 5
6 6 6 6 6 5 6 5 5 5 4 4 4 4 4 5 6 6 6 6 6 6 6 5 5 5 6 6 6 5 5 6 8 9 10 11 11 11 10 11 10 8 8 7 6 6 6 7 7 7 7 6 6 6 5 5 5 5 5 6 6 5 4 4 4 5 5 5 5 5 5 4 4 4 4 3 3 3 4 4 4 5 6 6 5 5
6 5 5 5 5 5 5 5 5 5 5 5 5 5 4 5 6 6 6 6 6 6 5 5 4 4 5 5 5 5 5 5 6 7 8 11 13 14 12 11 10 9 9 8 7 7 6 6 6 6 6 6 6 7 7 6 6 5 6 6 6 6 6 5 5 6 7 6 6 6 5 5 4 3 3 4 4 4 4 4 5 5 6 6 6 6
5 5 5 4 4 5 6 6 5 5 5 6 6 5 5 5 5 6 7 6 6 6 5 5 5 5 5 5 5 5 4 4 5 5 6 8 9 11 11 10 10 9 8 8 8 8 7 6 6 5 5 5 6 7 7 7 6 6 6 6 6 6 6 5 6 6 7 7 7 7 7 6 5 4 4 4 4 4 4 5 6 6 7 7 7 7
6 5 5 4 4 5 5 5 5 5 5 6 6 6 5 5 5 6 6 6 6 5 5 5 6 6 6 6 5 5 5 5 5 5 5 6 7 8 8 8 9 9 8 8 8 8 8 7 7 6 5 5 6 6 6 6 6 6 6 6 6 6 5 5 5 6 7 7 7 7 8 7 6 5 5 5 5 5 5 6 6 7 7 7 7 8
6 6 6 5 5 5 5 5 5 5 6 6 6 6 5 5 6 6 6 6 6 5 6 5 6 6 7 6 6 6 6 6 5 5 5 5 6 7 7 7 7 8 8 8 9 9 8 8 8 7 6 6 6 5 6 6 6 6 6 6 6 6 6 5 5 5 6 7 8 8 8 8 7 7 6 6 5 5 5 6 7 7 7 7 8 8
6 6 6 6 6 6 5 5 5 5 6 6 6 5 5 5 7 7 6 6 6 6 6 6 6 6 6 6 6 6 6 6 5 5 5 5 5 5 6 6 6 6 6 7 8 8 8 8 9 9 9 8 7 6 6 6 6 6 5 5 6 6 6 5 5 6 6 6 7 8 9 8 7 7 7 7 7 6 6 6 7 7 7 7 8 8
6 6 6 6 6 6 6 6 6 6 6 6 6 6 5 4 5 6 6 6 6 6 6 6 7 6 6 6 6 6 6 6 5 4 4 4 4 5 5 5 6 5 5 5 6 6 6 6 8 10 12 12 11 9 7 6 6 5 5 5 5 5 5 5 5 6 6 6 6 7 8 7 7 7 7 7 7 7 7 7 7 7 7 7 8 8
7 6 6 6 6 6 6 6 6 6 6 6 6 6 5 4 4 4 5 6 6 6 6 6 6 6 7 6 6 6 6 6 5 5 5 4 4 5 5 5 5 5 5 5 5 5 4 4 5 7 11 15 16 14 9 8 6 6 5 5 5 5 5 5 5 6 6 6 6 6 7 7 7 7 7 7 7 7 7 7 7 7 7 7 8 8
Wind_Direction
276 278 278 278 279 280 278 276 276 277 276 274 273 272 271 263 255 248 247 249 251 254 255 258 260 262 264 265 265 266 267 267 267 266 265 264 262 261 261 261 261 262 262 262 262 262 261 261 261 260 259 258 257 256 255 255 255 255 254 252 249 247 245 244 242 240 237 235 234 233 232 230 229 229 229 229 229 227 224 218 213 209 208 210 213 216
275 278 277 278 279 279 279 278 277 277 277 275 273 271 269 267 263 257 250 249 249 250 252 255 258 259 261 263 264 265 266 267 268 268 267 265 264 262 261 261 261 261 262 262 262 262 262 261 261 260 259 259 257 256 256 256 255 255 254 252 250 248 246 245 243 242 240 238 237 235 234 232 231 230 231 232 233 233 230 226 222 217 214 213 214 216
277 279 278 280 280 280 280 280 279 276 276 276 274 272 269 268 265 262 257 254 252 251 250 252 255 257 259 261 263 264 266 267 268 269 269 268 267 265 264 262 262 261 262 262 262 262 262 261 261 260 260 259 258 257 256 256 256 256 255 254 252 250 248 246 244 243 242 241 240 239 237 236 234 232 232 233 234 235 234 232 229 226 222 220 219 219
276 278 279 281 279 277 277 278 277 275 273 274 273 271 268 266 264 261 258 257 256 255 253 253 255 257 258 260 261 263 265 266 268 269 270 270 270 269 267 265 264 263 263 263 262 262 262 261 261 260 259 258 258 257 256 256 256 256 256 255 253 251 249 247 246 244 243 242 242 241 241 240 238 236 235 234 234 234 234 233 233 232 230 228 226 225
272 275 279 279 277 274 273 274 274 272 270 269 268 267 265 263 262 261 259 257 257 256 256 255 256 257 259 260 261 263 264 266 268 269 271 271 271 271 270 269 267 266 265 264 264 263 262 262 261 260 259 258 257 256 255 255 255 256 256 255 253 251 250 248 246 245 244 243 242 242 242 242 241 239 238 236 235 234 232 232 232 232 232 232 231 230
270 271 274 274 273 272 272 270 268 267 266 263 261 260 259 258 257 257 257 255 254 254 254 254 256 257 259 260 262 264 265 267 268 270 271 271 272 272 271 270 269 268 267 266 265 265 264 263 262 261 260 258 257 256 255 254 254 254 254 254 253 251 249 248 246 245 244 242 241 241 241 241 240 240 239 238 236 234 232 231 231 231 231 232 231 231
268 268 269 269 269 268 268 264 261 259 259 259 258 255 253 252 250 249 249 250 251 252 255 256 257 259 260 261 263 265 266 267 269 269 270 270 270 270 270 270 269 269 268 268 267 266 265 264 263 262 260 259 257 256 255 254 253 252 252 252 252 250 249 247 246 244 243 241 240 239 238 238 238 238 238 237 236 234 232 230 229 229 229 229 229 229
267 267 265 265 265 265 261 257 254 253 253 254 254 252 249 247 245 244 244 245 247 250 254 256 257 258 259 261 262 264 265 267 267 268 269 269 268 268 268 268 268 268 268 268 267 267 266 265 264 263 261 260 258 257 255 254 253 252 251 251 251 250 248 246 245 243 242 240 238 237 236 235 234 234 234 234 233 232 230 228 227 226 226 227 227 227
265 265 263 260 260 262 261 256 252 250 251 250 249 248 247 247 247 246 244 243 242 243 246 251 253 255 256 257 259 261 261 262 262 262 263 263 264 264 265 266 266 267 267 268 268 268 268 267 266 264 262 261 259 257 256 255 253 252 251 250 250 250 248 246 244 243 241 240 238 236 235 233 232 232 232 231 231 230 228 226 225 225 225 226 226 227
259 260 261 258 256 255 257 257 255 252 249 248 246 244 244 247 250 251 251 247 244 240 240 244 248 252 254 254 255 256 258 258 259 259 260 260 261 261 262 264 265 266 267 268 268 269 268 268 267 266 264 262 260 258 257 255 254 252 251 250 249 249 248 246 244 242 241 239 237 236 234 233 232 231 231 230 230 229 227 226 225 225 226 226 227 228
255 255 256 256 253 250 250 253 253 251 246 246 245 243 240 241 244 249 253 253 250 247 244 244 245 248 251 252 250 250 251 254 256 258 260 261 261 262 263 263 264 265 267 268 268 269 269 268 268 267 265 264 261 259 258 256 255 254 252 251 250 249 248 247 245 242 240 238 236 235 233 232 232 231 231 230 229 228 227 226 226 226 227 228 228 229
252 252 252 251 250 248 246 248 247 245 239 238 240 240 238 235 236 241 247 251 252 252 251 250 248 246 247 249 249 247 245 247 249 253 256 258 259 260 262 263 264 265 266 267 268 268 268 268 267 266 265 264 262 260 258 257 256 255 254 252 251 249 248 247 245 243 240 237 235 233 232 231 231 231 231 230 229 227 226 225 225 226 227 228 228 229
248 248 248 248 246 244 243 243 241 236 230 228 231 234 237 234 232 234 240 246 249 251 253 255 254 251 247 247 247 246 244 243 245 246 248 250 251 253 256 258 260 262 264 265 266 266 266 266 266 265 264 263 262 260 258 257 256 255 254 253 252 251 249 248 246 244 241 237 234 232 230 230 230 230 230 229 228 226 224 224 224 225 226 227 227 228
246 245 246 245 243 241 238 237 236 234 231 228 230 233 237 236 234 233 237 243 245 247 251 254 255 255 252 249 247 245 243 244 244 245 246 246 246 247 250 254 255 256 258 259 260 261 262 263 263 263 263 262 261 260 258 257 255 255 254 254 253 252 251 250 248 246 243 239 235 231 229 229 229 229 229 228 227 225 223 223 223 224 225 225 226 227
244 243 244 243 242 240 236 235 235 236 235 233 233 236 239 238 236 233 235 240 242 244 245 250 252 253 251 248 245 244 243 244 245 247 248 248 246 245 247 252 253 254 253 255 257 258 259 259 260 261 262 261 260 259 258 256 255 253 254 254 253 253 252 251 250 249 246 241 236 232 229 228 228 228 228 227 225 223 221 221 222 222 224 224 225 226
242 241 243 244 244 242 239 237 237 238 239 238 237 236 236 236 234 232 233 237 239 239 239 244 248 250 249 242 238 236 238 241 243 245 249 250 247 243 242 248 251 252 250 251 253 256 256 256 257 259 260 260 260 259 259 257 255 253 253 253 253 253 252 252 252 251 250 246 240 234 230 228 227 226 225 224 223 221 220 219 220 221 222 223 224 225
242 241 242 244 245 244 242 241 240 240 240 240 238 235 232 232 232 232 232 234 235 234 233 236 242 248 251 241 231 225 225 232 238 242 245 249 247 241 236 243 247 249 249 249 250 252 253 254 254 256 258 259 259 260 259 258 257 255 254 253 253 252 252 252 253 254 254 251 245 238 232 228 225 224 223 221 220 219 218 218 218 219 220 221 223 224
243 242 243 244 245 246 244 243 241 240 240 239 239 238 237 234 233 233 234 232 232 232 234 235 237 242 249 248 234 218 210 221 231 238 241 245 244 239 233 237 242 246 248 248 248 249 249 250 251 252 255 257 258 259 260 260 259 258 257 256 255 254 252 252 254 256 260 258 252 245 236 229 225 221 219 218 217 216 216 216 217 218 219 220 221 223
246 244 244 246 247 248 246 243 240 237 236 234 234 235 238 236 234 233 234 232 231 232 235 237 240 242 244 247 244 228 205 213 223 233 237 241 241 238 230 233 238 243 246 247 248 248 247 249 250 251 253 255 256 257 258 259 260 260 260 259 258 256 254 253 253 256 260 263 260 252 241 232 226 220 216 215 214 213 213 214 215 216 217 218 219 221
249 246 244 246 249 250 249 244 238 233 230 230 230 231 232 231 230 229 231 231 232 234 235 238 241 243 244 248 250 244 220 212 218 229 236 241 242 238 229 232 236 241 244 245 245 245 245 246 249 251 252 252 253 254 256 257 258 259 260 260 260 258 256 254 253 253 256 260 260 256 248 236 228 221 216 213 211 211 212 213 214 215 216 216 218 219
257 250 243 241 244 247 246 242 236 232 229 228 228 229 230 229 228 228 228 229 231 234 235 237 240 242 244 249 250 247 234 217 216 225 236 242 242 239 231 231 235 240 244 245 244 242 242 243 244 246 248 250 251 252 253 253 254 255 256 257 258 258 257 255 253 252 252 255 257 257 252 241 231 223 217 214 211 211 211 213 214 215 215 216 217 219
268 263 252 241 238 239 243 243 239 233 226 222 223 225 227 226 228 228 228 228 229 232 234 237 240 243 247 249 251 249 240 225 219 221 233 243 244 241 231 231 235 240 244 246 244 242 240 240 241 243 245 247 249 249 250 251 251 252 253 254 255 256 256 255 253 251 250 250 252 254 255 246 236 227 220 215 212 211 212 213 214 215 215 216 217 219
263 264 263 253 245 240 240 240 237 231 223 220 220 222 223 223 226 228 229 228 231 234 237 242 246 249 250 250 250 248 242 230 222 221 231 244 246 243 233 231 235 240 244 246 246 244 240 240 241 243 246 247 248 249 250 250 250 251 251 251 252 253 254 254 253 252 250 248 248 249 250 247 241 233 225 219 216 214 213 214 214 215 215 216 218 220
255 257 259 256 251 245 240 236 232 226 220 218 219 221 223 223 226 229 231 231 234 239 244 249 250 250 247 245 244 243 238 228 218 215 227 241 246 247 241 237 239 243 246 247 247 246 244 243 241 242 245 247 248 249 250 250 250 250 250 250 251 252 252 253 253 252 250 248 247 246 246 246 243 239 233 227 222 218 216 215 215 215 215 216 218 220
249 250 251 250 247 244 240 237 232 226 219 217 218 220 221 224 228 232 236 235 235 236 238 241 242 242 240 238 237 236 232 222 212 208 218 238 247 249 247 243 244 248 251 249 247 247 248 247 245 243 244 246 248 249 249 250 251 251 251 251 251 251 251 251 251 251 250 249 247 245 244 244 243 242 239 234 229 225 221 219 218 217 216 217 219 221
249 248 248 248 248 247 247 245 241 235 227 221 217 215 216 219 222 226 229 227 226 225 228 233 236 237 237 234 233 230 226 216 209 206 213 233 246 250 247 244 246 250 254 251 248 246 247 248 247 245 242 245 247 248 249 250 251 251 251 251 251 251 251 250 250 250 249 248 247 245 244 243 242 241 240 238 234 231 228 225 223 221 220 220 221 223
255 253 253 252 252 251 251 250 248 244 237 230 224 217 212 210 212 217 221 220 218 218 222 229 235 238 238 235 233 228 220 213 208 206 207 225 241 248 246 243 245 249 254 252 247 244 246 247 248 246 244 243 244 246 247 249 250 251 251 251 251 251 251 250 249 249 248 247 246 245 244 242 241 240 239 238 236 234 231 229 228 226 225 225 224 225
258 257 256 255 254 253 253 253 253 251 247 241 234 226 217 210 210 215 220 217 214 215 220 225 231 236 238 237 234 229 220 214 207 201 197 213 232 243 243 242 243 245 250 252 251 248 246 248 248 248 247 243 242 243 245 247 249 250 251 251 251 251 251 250 249 248 247 246 245 244 243 242 240 239 238 237 236 234 232 231 230 229 229 228 228 230
259 258 257 255 254 254 254 254 255 254 253 250 244 236 224 215 212 216 220 216 213 214 219 223 227 232 236 238 238 234 226 219 206 193 185 204 227 239 239 238 238 238 242 251 255 252 246 246 245 246 246 244 242 240 242 244 247 249 251 251 252 252 251 251 249 248 247 245 244 242 241 240 239 238 237 236 235 233 232 231 230 230 229 228 228 230
257 256 255 253 252 252 252 252 252 252 252 252 250 245 234 223 216 218 220 216 214 214 219 223 226 228 231 235 238 238 232 220 203 187 179 200 221 234 231 232 231 228 225 238 250 253 248 242 237 236 238 241 240 237 235 236 239 243 247 250 251 252 252 251 250 249 247 246 244 242 240 238 237 236 235 234 233 232 231 230 229 228 226 225 225 224
257 254 250 248 247 246 245 245 245 246 247 248 249 247 240 228 219 216 216 215 214 215 218 222 223 223 222 223 228 233 232 217 197 183 176 198 218 228 224 226 225 221 210 215 230 249 256 246 233 226 227 233 236 236 232 229 227 229 232 240 246 250 251 251 250 249 248 246 244 242 240 238 236 234 232 231 230 230 229 228 227 226 222 220 217 213
260 256 251 247 243 240 237 236 236 237 238 240 241 241 238 231 222 213 208 209 211 215 219 222 223 223 219 220 224 229 231 218 194 182 176 194 215 224 218 221 223 219 209 210 219 235 253 256 246 229 219 225 230 233 231 226 222 220 221 226 234 243 247 248 248 248 247 246 244 242 241 238 236 234 231 229 228 227 226 225 224 222 216 209 202 196
264 261 257 252 247 240 232 228 226 226 227 228 230 231 232 231 225 217 207 204 206 210 216 221 224 225 223 224 227 231 232 225 201 188 181 188 205 221 216 217 218 218 212 213 219 229 243 252 258 257 241 231 229 230 230 226 221 217 217 221 227 235 241 242 243 244 243 243 243 243 242 241 239 237 233 230 227 224 223 222 220 216 207 195 186 184
267 265 262 259 253 245 235 227 222 221 221 222 223 223 224 227 226 221 210 203 202 206 211 216 220 223 225 226 230 232 232 225 211 198 184 186 197 214 215 213 213 213 212 215 218 224 237 243 248 254 257 246 236 231 230 227 222 216 213 218 224 230 234 234 235 236 236 237 239 241 242 244 244 242 238 232 226 222 220 217 213 208 200 189 181 177
268 265 263 261 256 249 239 229 223 219 218 219 219 220 220 222 223 222 216 207 204 204 209 213 217 220 223 225 229 231 229 221 213 204 191 188 194 206 213 212 209 207 210 214 216 220 231 235 237 240 248 250 243 235 227 225 221 216 212 216 221 226 230 230 229 228 229 227 229 232 235 241 245 245 241 232 225 219 215 211 207 203 199 193 188 182
267 264 262 259 255 249 241 233 226 221 219 218 218 217 217 218 219 220 219 213 208 207 209 214 218 221 223 225 228 230 229 221 212 206 199 193 193 200 211 213 210 205 206 213 215 219 225 231 233 234 238 243 245 239 227 219 216 215 215 216 219 223 229 230 228 226 223 221 221 221 221 225 230 235 236 227 222 217 212 209 207 205 203 201 199 195
265 263 262 257 252 246 241 235 229 224 220 219 217 215 214 215 216 217 218 215 212 210 211 215 219 223 226 229 231 233 234 225 214 207 202 196 194 199 208 214 211 207 205 210 215 219 223 228 231 232 233 235 238 237 228 215 211 213 216 214 216 220 226 228 229 227 223 219 217 215 212 212 215 218 223 223 221 218 214 213 212 211 211 210 209 206
265 264 262 257 249 242 238 236 231 227 221 220 218 215 213 214 213 213 213 212 212 212 214 215 219 223 226 229 232 234 237 229 219 209 202 197 197 200 207 214 214 212 208 210 213 216 219 226 229 231 232 232 234 236 232 219 212 211 213 211 212 216 220 223 224 225 225 221 217 213 208 205 205 206 210 214 215 216 216 216 215 215 216 217 216 214
269 268 266 260 252 244 237 235 232 228 223 220 218 216 214 213 212 211 209 209 210 213 215 217 220 223 224 227 229 231 233 229 220 209 200 197 198 201 207 213 216 216 213 213 213 216 218 223 226 229 231 233 236 235 232 223 214 207 205 206 209 213 216 217 219 221 223 223 220 216 209 202 198 197 197 200 202 206 211 214 215 215 216 218 220 220
275 274 272 268 262 254 248 244 240 234 228 225 221 218 214 213 212 210 208 208 210 214 218 220 222 224 223 224 226 227 227 225 219 210 201 199 199 202 207 211 215 216 214 213 215 217 220 224 228 231 233 234 234 232 230 225 215 205 199 201 205 208 208 210 213 216 218 220 220 218 211 203 198 195 194 194 195 197 201 203 207 210 210 211 215 220
276 275 275 274 272 269 265 260 254 247 237 229 223 218 214 211 208 207 206 208 209 212 215 217 221 225 224 223 224 224 223 221 217 211 203 199 200 203 208 211 213 215 214 215 216 219 221 225 229 232 234 234 235 234 233 227 219 211 204 204 203 202 198 201 204 208 211 215 218 218 214 207 202 199 196 195 195 195 195 193 195 200 204 205 207 210
274 274 276 280 282 281 280 276 269 260 247 235 225 219 213 207 204 203 202 206 207 207 206 209 216 222 226 225 224 222 220 218 214 210 203 200 200 203 209 212 214 214 214 217 219 220 221 223 226 229 229 230 231 233 232 229 224 217 210 206 203 200 198 199 199 200 204 208 212 215 214 210 206 202 198 197 195 193 194 193 196 199 201 203 205 208
279 282 286 289 291 292 292 287 280 270 257 244 233 224 214 207 204 204 204 206 206 205 203 205 210 216 223 225 223 220 218 216 213 210 206 201 201 204 210 213 215 215 214 217 220 222 222 224 226 227 227 226 227 229 230 228 226 223 215 207 201 198 197 196 194 194 199 203 206 209 211 209 206 202 199 197 194 193 193 198 202 203 204 204 206 210
281 283 286 287 288 289 289 285 279 272 263 253 244 234 220 210 207 207 208 209 208 206 203 203 206 213 221 224 223 221 217 214 213 212 210 205 204 206 211 215 216 217 215 217 220 223 224 225 226 226 225 225 226 227 227 225 224 222 218 209 205 203 202 191 185 186 194 199 202 204 207 206 203 200 199 198 196 195 195 199 203 206 208 207 208 210
276 276 276 276 276 276 275 273 272 268 263 257 251 243 230 215 209 208 209 210 209 206 203 199 201 210 220 222 222 220 217 211 209 209 211 210 209 209 211 214 216 218 219 221 222 223 224 226 226 226 223 222 223 225 226 224 223 222 220 214 211 210 210 198 186 183 189 193 197 199 201 200 198 197 198 199 201 200 200 201 203 207 210 210 210 212
273 271 269 268 266 266 267 268 268 266 261 258 254 248 237 220 212 209 210 209 207 206 202 198 200 209 218 219 219 218 217 211 207 205 206 208 209 209 210 212 215 217 220 223 225 226 227 228 228 226 223 222 222 222 222 220 220 220 219 214 212 212 214 207 195 188 186 188 191 193 192 190 192 196 201 202 203 204 206 206 206 208 210 211 212 213
281 278 275 272 269 266 266 266 265 262 259 257 255 251 243 225 214 210 210 208 206 204 202 201 205 212 219 219 218 216 216 214 209 204 201 203 205 206 208 211 214 216 219 223 225 227 229 230 229 227 224 223 223 222 220 217 217 218 217 213 211 210 211 210 202 193 187 187 188 186 183 183 188 196 201 203 205 207 209 210 211 211 211 212 213 214
290 287 284 280 275 270 267 265 263 261 260 258 258 255 248 230 216 210 209 206 204 203 202 204 209 214 220 220 219 217 216 216 212 206 200 199 200 202 203 206 210 213 217 221 225 227 229 229 229 227 226 226 227 226 222 217 216 215 215 213 210 209 209 210 205 198 192 189 186 183 179 182 187 193 197 200 204 208 210 212 213 214 213 214 214 215
292 289 286 281 276 271 267 265 263 263 263 262 262 261 256 239 222 213 208 204 202 202 204 206 210 214 218 220 219 218 218 218 216 210 202 198 196 196 198 200 203 207 213 218 221 224 228 229 228 226 225 226 229 231 230 223 219 216 215 214 213 212 211 208 204 200 196 192 187 184 182 185 188 191 193 198 203 207 209 211 213 214 215 215 216 217
291 289 287 283 279 275 272 269 267 265 265 264 264 264 262 248 230 216 208 203 201 202 204 207 210 213 217 218 218 217 216 217 216 213 208 199 194 192 193 195 198 203 208 213 215 218 222 226 226 225 223 223 225 228 232 229 225 220 217 217 216 214 213 210 206 201 197 194 189 187 186 189 190 191 193 199 203 207 208 211 213 214 214 215 217 219
289 287 285 283 282 280 278 275 272 269 268 267 266 265 264 256 240 222 209 204 202 202 204 207 210 214 218 219 218 216 214 214 214 213 210 200 193 190 190 191 194 199 205 210 213 214 216 221 224 224 222 220 220 221 226 227 226 224 222 218 216 214 215 213 208 202 198 195 191 189 189 192 194 194 195 199 204 207 210 212 213 213 212 213 216 219